Regional Weather Roundup
Issued by NWS

Home | Current Version | Previous Version | Graphics & Text | Print | Product List | Glossary On
Versions: 1 2 3 4 5 6 7 8 9 10 11 12 13 14 15 16 17 18 19 20 21 22 23 24 25 26 27 28 29 30 31 32 33 34 35 36 37 38 39 40 41 42 43 44 45 46 47 48 49 50
000
ASUS43 KLOT 070100
RWRIL

ILLINOIS REGIONAL WEATHER ROUNDUP
NATIONAL WEATHER SERVICE CHICAGO/ROMEOVILLE IL
800 PM CDT MON JUL 06 2015

NOTE: "FAIR" INDICATES FEW OR NO CLOUDS BELOW 12,000 FEET WITH NO
SIGNIFICANT WEATHER AND/OR OBSTRUCTIONS TO VISIBILITY.

* THESE STATIONS ARE NOT UNDER NWS QUALITY CONTROL. THEY ALSO MAY NOT
  REPORT WEATHER SUCH AS PRECIPITATION OR FOG.

ILZ001-002-007-009-015-016-024-070200-
NORTHWEST ILLINOIS

CITY           SKY/WX    TMP DP  RH WIND       PRES   REMARKS
MOLINE         HVY RAIN  70  68  93 NW7       29.87S FOG
STERLING*      CLOUDY    72  70  94 W6        29.84R
$$

ILZ003-004-008-010-011-017-018-070200-
NORTH CENTRAL ILLINOIS

CITY           SKY/WX    TMP DP  RH WIND       PRES   REMARKS
ROCKFORD       CLOUDY    76  68  76 S7        29.84R
$$

ILZ005-006-012>014-019>023-070200-
NORTHEAST ILLINOIS

CITY           SKY/WX    TMP DP  RH WIND       PRES   REMARKS
CHICAGO-OHARE  LGT RAIN  79  68  69 S12       29.83F HX  81
CHICAGO-MIDWAY MOCLDY    81  65  58 S10       29.83F HX  83
AURORA         CLOUDY    76  70  82 W23       29.87R
LANSING*       MOCLDY    73  64  72 S8        29.86F
WAUKEGAN       MOCLDY    75  71  87 CALM      29.82S
DUPAGE AIRPORT LGT RAIN  76  70  82 S9        29.84S
WHEELING       MOCLDY    80  69  69 S10       29.84F HX  83
NORTHERLY ISL    N/A     79  64  60 SW9         N/A  HX  81
$$

LMZ740>746-070200-
SOUTHERN LAKE MICHIGAN

STATION/POSITION SKY/WX   TEMP    WIND        PRES    VSBY  WAVE
                          AIR SEA DIR/SP/G                  HT/PER
                          (F)     (DEG/KT/KT) (MB)    (MI)  (FT/S)
HARRISON CRIB              74     170/ 17/ 19   N/A
BURNHAM HARBOR             79     180/  7/  9   N/A
CALUMET HARBOR             80     180/ 10/ 20   N/A
BURNS HARBOR               78     160/  7/ 12 1011.9F
MICHIGAN CITY              77     140/  9/ 13   N/A
MICHIGAN CITY 6N           72 68  180/  4/  6   N/A           1
ST. JOSEPH                 72 67  190/  8/ 10   N/A           1
$$

ILZ025>027-034>036-040-047-049-050-058-095>099-070200-
WEST-CENTRAL ILLINOIS

CITY           SKY/WX    TMP DP  RH WIND       PRES   REMARKS
QUINCY         CLOUDY    82  73  74 S8        29.87R HX  87
MACOMB*        CLOUDY    79  75  89 S5        29.90R HX  82
$$

ILZ028>032-037-038-041>044-048-051>054-059>061-070200-
CENTRAL ILLINOIS

CITY           SKY/WX    TMP DP  RH WIND       PRES   REMARKS
DECATUR        MOCLDY    78  70  76 S8        29.91S HX  80
PEORIA         CLOUDY    85  73  67 S16       29.87R HX  91
SPRINGFIELD    MOCLDY    82  72  71 S12       29.89R HX  87
TAYLORVILLE    NOT AVBL
$$

ILZ033-039-045-046-055>057-062-063-070200-
EAST-CENTRAL ILLINOIS

CITY           SKY/WX    TMP DP  RH WIND       PRES   REMARKS
CHAMPAIGN      MOCLDY    76  69  79 S8        29.92R
MATTOON        MOCLDY    75  70  84 S6        29.92S
$$

ILZ079-100>102-070200-
SOUTHWEST ILLINOIS

CITY           SKY/WX    TMP DP  RH WIND       PRES   REMARKS
ALTON          MOCLDY    75 N/A N/A S6        29.91F
BELLEVILLE     MOCLDY    81  76  85 S10       29.91R HX  87
CAHOKIA*       MOCLDY    82  74  76 S7        29.91R HX  88
SPARTA*        MOCLDY    81  74  79 S9        29.95S HX  87
$$

ILZ064>066-069>071-074>076-080>082-084>086-088>090-092>094-070200-
SOUTH-CENTRAL ILLINOIS

CITY           SKY/WX    TMP DP  RH WIND       PRES   REMARKS
CARBONDALE     MOCLDY    81  74  79 S8        29.95S HX  86
MT. VERNON     PTCLDY    82  72  69 S10       29.95S HX  87
SALEM*         MOCLDY    83  73  70 S8        29.94S HX  89
$$

ILZ067-068-072-073-078-083-087-091-070200-
SOUTHEAST ILLINOIS

CITY           SKY/WX    TMP DP  RH WIND       PRES   REMARKS
LAWRENCEVILLE  MOCLDY    81  75  82 S5        29.95R HX  87
HARRISBURG*    PTCLDY    82  75  79 S6        29.98R HX  87
$$

ABBREVIATIONS USED IN REMARKS
   TC - TEMPERATURE IN CELSIUS
  WCI - WIND CHILL INDEX
   HX - HEAT INDEX
  VSB - VISIBILITY
$$



USA.gov is the U.S. government's official web portal to all federal, state and local government web resources and services.